weather.gov     
National Weather Service

Weather Roundup
NWS Homepage
This page is being discontinued on March 12, 2014.
The same data is available at this site. Please update your bookmarks.
Thank you, and we apologize for the inconvenience.
Please send an email to SR-SRH.Webmaster@noaa.gov with any concerns.


Current Version
Previous Version:    01  02  03  04  05  06  07  08  09  10  11  12  13  14  15  16  17  18  19  20  21  22  23  24  25  26  27  28  29  30  
   31  32  33  34  35  36  37  38  39  40  41  42  43  44  45  46  47  48  49  50  51  52  53  54  55  56  57  58  59  60  
[Printable]
512
NZUS99 KSGF 230059
HRRSGF

HOURLY WEATHER
NATIONAL WEATHER SERVICE SPRINGFIELD MO
700 PM CST SAT NOV 22 2014

......SGF CWA......

CITY           SKY/WX    TMP DP  RH WIND       PRES   REMARKS
SPRINGFIELD    MOCLDY    53  50  89 S13       29.87S
JOPLIN         PTCLDY    53  51  93 S6        29.84S
WEST PLAINS    CLOUDY    52  48  86 S17G24    29.96F
ROLLA          CLOUDY    52  49  89 S15G28    29.90R
OSAGE BEACH    CLOUDY    54  48  82 S12       29.87F
BRANSON        CLOUDY    52  50  93 SE16      29.92S

......SURROUNDING SGF CWA......

CITY           SKY/WX    TMP DP  RH WIND       PRES   REMARKS
CHANUTE        CLOUDY    55  52  89 S14G24    29.80S
PARSONS        CLOUDY    56  53  90 S10G21    29.81F
COFFEYVILLE    MOCLDY    55  52  89 S14       29.80F
EMPORIA        CLOUDY    54  52  93 S17G25    29.72F
SILOAM SPRINGS CLOUDY    54  48  82 S24       29.90R
HARRISON AR    CLOUDY    52  52 100 S15       29.95R
NEAR YELLVILLE CLOUDY    54  48  82 S6        29.98R

......KANSAS AND MISSOURI......

CITY           SKY/WX    TMP DP  RH WIND       PRES   REMARKS
KANSAS CTY INT MOCLDY    55  51  86 S16       29.75S
DOWNTOWN KC    CLOUDY    57  51  80 S13       29.76S
COLUMBIA       CLOUDY    55  51  86 S16       29.87R
SEDALIA        PTCLDY    56  51  84 S17       29.84S
ST JOSEPH      MOCLDY    53  50  89 S13       29.72F
ST LOUIS       CLOUDY    55  50  83 S12       29.93F
SPIRIT OF STL  CLOUDY    54  50  86 S13G23    29.90F
KIRKSVILLE     MOCLDY    54  50  86 S10       29.80F
WICHITA        CLOUDY    57  52  83 S15       29.71F
TOPEKA         CLOUDY    57  52  83 S16G25    29.72F
OLATHE         CLOUDY    56  52  86 S18G24    29.76S

......TENNESSEE......

CITY           SKY/WX    TMP DP  RH WIND       PRES   REMARKS
MEMPHIS        PTCLDY    58  40  51 SE7       30.04S
NASHVILLE      MOCLDY    58  41  53 S9        30.13R

......ARKANSAS.......

CITY           SKY/WX    TMP DP  RH WIND       PRES   REMARKS
FAYETTEVILLE   CLOUDY    53  53 100 S13       29.93R
FT SMITH       CLOUDY    53  51  93 E7        29.94F FOG
LITTLE ROCK    CLOUDY    57  50  77 SE7       29.98F

......OKLAHOMA.......

CITY           SKY/WX    TMP DP  RH WIND       PRES   REMARKS
TULSA          CLOUDY    57  54  89 S20G28    29.79F
PONCA CITY     CLOUDY    56  52  86 S14       29.75S
MCALESTER      CLOUDY    56  54  93 E7        29.88F
OKLAHOMA CITY  CLOUDY    58  52  80 S13G29    29.74F

......IOWA............

CITY           SKY/WX    TMP DP  RH WIND       PRES   REMARKS
DES MOINES     CLOUDY    56  52  86 S15       29.68F
QUAD CITIES    CLOUDY    55  49  80 S13       29.80F

......ILLINOIS........

CITY           SKY/WX    TMP DP  RH WIND       PRES   REMARKS
QUINCY         MOCLDY    54  48  80 S12       29.84F
CHICAGO        CLOUDY    52  45  77 SW15G24   29.86R





U.S. Dept. of Commerce
NOAA National Weather Service
1325 East West Highway
Silver Spring, MD 20910
E-mail: w-nws.webmaster@noaa.gov
Page last modified: May 16, 2007
NATIONAL WEATHER SERVICE: for Safety, for Work, for Fun - FOR LIFE